Flag for Vatican City State Weather past 2 weeks in Vatican City, Vatican City State

Now
72 °F

Clear.


Feels Like: 69 °F
Forecast: 64 / 91 °F
Wind: 3 mph from South

Location: Rome / Ciampino

Current Time: Jun 30, 2015 at 2:05:09 AM

Latest Report: Jun 30, 2015 at 1:15 AM


Visibility: 10 mi

Pressure: 30.09 "Hg

Humidity: 88%

Dew point: 68 °F

Location of Vatican CityLocation

Historic Weather in Vatican City — Graph

°F

Vatican City temperature yesterday

Maximum temperature yesterday: 88 °F (at 1:15 PM)
Minimum temperature yesterday: 64 °F (at 6:15 AM)
Average temperature yesterday: 76 °F

Past Weeks' High & Low Weather Summary

 TemperatureHumidityPressure
High88 °F (Jun 27, 2:15 PM)94% (Jun 15, 12:15 AM)30.09 "Hg (Jun 15, 12:15 AM)
Low57 °F (Jun 21, 6:15 AM)19% (Jun 27, 2:15 PM)29.80 "Hg (Jun 19, 4:45 PM)
Average72 °F62%29.96 "Hg
* Reported Jun 15 12:15 AM — Jun 30 12:45 AM, Vatican City, Weather by CustomWeather, © 2015

Note: Actual official high and low records may vary slightly from our data, if they occured in-between our weather recording intervals... More about our weather records

Advertising

Vatican City weather history for previous 24 hours

 ConditionsComfort  
Time TempWeatherWind HumidityBarometerVisibility
12:45 AM
Tue, Jun 30
73 °FClear.3 mph89%30.09 "Hg10 mi
12:15 AM73 °FClear.5 mph89%30.09 "Hg10 mi
11:15 PM
Mon, Jun 29
73 °FClear.5 mph89%30.07 "Hg10 mi
10:45 PM73 °FClear.5 mph89%30.07 "Hg10 mi
10:15 PM75 °FClear.5 mph89%30.07 "Hg10 mi
9:45 PM75 °FSunny.6 mph89%30.07 "Hg10 mi
9:15 PM77 °FSunny.5 mph79%30.07 "Hg10 mi
8:45 PM79 °FSunny.5 mph61%30.07 "Hg10 mi
8:15 PM81 °FSunny.5 mph54%30.07 "Hg10 mi
7:45 PM81 °FSunny.5 mph54%30.07 "Hg10 mi
7:15 PM81 °FSunny.5 mph51%30.07 "Hg10 mi
6:45 PM81 °FPassing clouds.7 mph51%30.07 "HgN/A
6:15 PM81 °FPassing clouds.8 mph58%30.07 "HgN/A
5:45 PM81 °FPassing clouds.7 mph54%30.07 "HgN/A
5:15 PM81 °FPassing clouds.8 mph58%30.07 "HgN/A
4:45 PM82 °FPassing clouds.8 mph51%30.07 "HgN/A
4:15 PM82 °FPartly sunny.9 mph48%30.07 "HgN/A
3:45 PM84 °FScattered clouds.7 mph45%30.07 "HgN/A
3:15 PM84 °FScattered clouds.8 mph45%30.07 "HgN/A
2:45 PM86 °FScattered clouds.10 mph43%30.07 "HgN/A
2:15 PM86 °FScattered clouds.10 mph43%30.07 "HgN/A
1:45 PM86 °FPassing clouds.7 mph38%30.07 "HgN/A
1:15 PM88 °FPassing clouds.3 mph24%30.07 "HgN/A
12:45 PM86 °FPassing clouds.3 mph25%30.07 "HgN/A
12:15 PM86 °FPassing clouds.3 mph29%30.07 "HgN/A
11:45 AM84 °FPassing clouds.2 mph31%30.09 "HgN/A
11:15 AM84 °FSunny.3 mph33%30.09 "Hg10 mi
10:45 AM81 °FSunny.1 mph37%30.09 "Hg10 mi
10:15 AM79 °FSunny.2 mph42%30.09 "Hg10 mi
9:45 AM77 °FSunny.3 mph47%30.09 "Hg10 mi
8:45 AM75 °FPassing clouds.6 mph57%30.09 "HgN/A
8:15 AM72 °FSunny.7 mph78%30.07 "Hg10 mi
7:45 AM68 °FSunny.2 mph78%30.07 "Hg10 mi
7:15 AM66 °FSunny.2 mph78%30.07 "Hg10 mi
6:45 AM64 °FSunny.No wind83%30.07 "Hg10 mi
6:15 AM64 °FClear.1 mph83%30.04 "Hg10 mi
5:45 AM66 °FClear.No wind78%30.04 "Hg10 mi
5:15 AM66 °FClear.2 mph78%30.04 "Hg10 mi
4:45 AM66 °FClear.1 mph83%30.04 "Hg10 mi
4:15 AM66 °FClear.No wind83%30.04 "Hg10 mi
3:45 AM68 °FClear.No wind78%30.07 "Hg10 mi
3:15 AM68 °FClear.No wind78%30.07 "Hg10 mi
2:45 AM68 °FClear.No wind78%30.04 "Hg10 mi
2:15 AM68 °FClear.No wind78%30.04 "Hg10 mi
Weather by CustomWeather, © 2015

See weather overviewHow to use our weather pages